ATLAS 5 CENTAUR DEB, 44689

Orbit data source: Space-Track

ATLAS 5 CENTAUR DEB, 44689 is space debris in HEO originally from a launch on Wed, 17 Oct 2018 UTC launched from the Air Force Eastern Test Range (AFETR). Debris objects in space refer to the collection of defunct objects orbiting the Earth. Examples of debris include non-operational satellites, rocket bodies, and fragments generated from explosions, collisions, or faulty payload assembly.

Loading next visibility...
Identifier
44689, 2018-079BB
Orbit
HEO
Country
Flag of USUS
Related business
Flag of USUnited Launch Alliance/Lockheed Martin (US)
Manufacturer
ULA Decatur
Mission
Spacecraft
Bus & Motor
Unknown
Mass
Unknown
Launch date (UTC)
2018-10-17 (7 years ago)
Launch vehicle
Unknown
Launch site
Air Force Eastern Test Range (AFETR)
Object type
Payload
Rocket body
Debris
Shape & HBR
Unknown shape, 1.1 m
Radar Cross Section
RCS unknown

Expand to show TLE details & history
Last TLE update: 1 week ago

TLE from 1 week ago
0 ATLAS 5 CENTAUR DEB
1 44689U 18079BB  25288.60909102 -.00000105  00000-0  00000+0 0  9994
2 44689  12.9319 333.7086 4826569 103.3507 312.8704  2.13313506 48075
Epoch: 2025-10-15T14:37Z
TLE epoch observation values (Epoch: 2025-10-15T14:37:05.464Z)
Latitude
-0.00002°
Longitude
90.03532°
Altitude
15,620.806 km
Speed
4.539 km/s
True Right ascension
22h 14m 45s
True Declination
0° 00' 00"
Sunlit
Object was in daylight at epoch
Visualization orbit readout
Latitude
Unknown
Longitude
Unknown
Altitude
Unknown
Speed
Unknown
Apparent Right ascension
Unknown
Apparent Declination
Unknown
Sunlit
N/A
Visualization observer readout
Local Sidereal Time
09:57:07
Azimuth
Unknown
Elevation
Unknown
Doppler factor
Unknown
Orbital elements
Apogee altitude
31,420.058 km
Perigee altitude
6,810.778 km
Semi-major axis
25,493.555 km
Eccentricity
0.48266
Inclination
12.9319°
RAAN
333.7086°
Arg. of periapsis
103.3507°
True anomaly
256.52103°
Mean anomaly
312.8704°
Eccentric anomaly
286.3321°
Mean motion
0.53321 °/min
Orbital period
675.16 mins
BSTAR
0
Loading maneuver chart data...
Computing Atmospheric mass density...

Documentation

Showing up to 5 results
|